Regional Weather Roundup
Issued by NWS

Home | Current Version | Previous Version | Text Only | Print | Product List | Glossary Off
Versions: 1 2 3 4 5 6 7 8 9 10 11 12 13 14 15 16 17 18 19 20 21 22 23 24 25 26 27 28 29 30 31 32 33 34 35 36 37 38 39 40 41 42 43 44 45 46 47 48 49 50

000
ASUS45 KBOU 251407
RWRCO

WEATHER ROUNDUP FOR COLORADO
NATIONAL WEATHER SERVICE DENVER/BOULDER CO
800 AM MDT SAT APR 25 2015

NOTE: "FAIR" INDICATES FEW OR NO CLOUDS BELOW 12000 FEET WITH NO
SIGNIFICANT WEATHER AND/OR OBSTRUCTIONS TO VISIBILITY.

COZ001>005-013-030-031-251500-
...NORTHWEST COLORADO...

CITY           SKY/WX    TMP DP  RH WIND       PRES   REMARKS
CRAIG          LGT RAIN  41  37  86 W8        29.85R
HAYDEN         CLOUDY    43  34  70 NW9       29.84R
MEEKER         LGT RAIN  43  37  79 W13G18    29.84R
MOUNT WERNER   NOT AVBL
STEAMBOAT SPGS CLOUDY    39  35  86 CALM      29.84S
WALDEN         CLOUDY    36  30  80 S6        29.85S
$$

COZ006>008-011-251500-
...WEST CENTRAL VALLEYS...

CITY           SKY/WX    TMP DP  RH WIND       PRES   REMARKS
GRAND JUNCTION RAIN      44  43  96 N15       29.84R FOG
MONTROSE       CLOUDY    50  34  54 SW8       29.88R
EAGLE          MOSUNNY   36  28  75 CALM      29.90S
RIFLE          CLOUDY    43  34  70 CALM      29.83S
DELTA          CLOUDY    49  36  59 MISG      29.86R
NUCLA          LGT RAIN  46  37  71 MISG      29.92R
$$

COZ017>023-064>068-251500-
...SOUTHWEST COLORADO...

CITY           SKY/WX    TMP DP  RH WIND       PRES   REMARKS
DURANGO        CLOUDY    39  37  92 E6        29.96R
CORTEZ         SUNNY     45  40  82 E3        29.93S
PAGOSA SPRINGS LGT RAIN  37  36  94 CALM      29.99S
TELLURIDE      PTSUNNY   34  32  92 CALM      29.97S
WOLF CREEK PAS NOT AVBL
$$

COZ009-010-012-014-032>034-037-058>063-251500-
...CENTRAL COLORADO...

CITY           SKY/WX    TMP DP  RH WIND       PRES   REMARKS
ASPEN          PTSUNNY   39  27  62 SW3       29.87S
BUENA VISTA    PTSUNNY   38  25  60 W5        29.91S
COPPER MTN     PTSUNNY   30  18  59 S10       29.99S WCI  21
BERTHOUD PASS  FAIR      21  14  73 W18G26    29.99S WCI   6
COTTONWOOD PAS PTSUNNY   37  23  56 E3        29.94S
GUNNISON       PTSUNNY   30  27  86 CALM      29.98S
KREMMLING      PTSUNNY   34  28  80 CALM      29.89S
LEADVILLE      CLOUDY    28  18  66 CALM      29.93S
SALIDA         PTSUNNY   46  26  44 SW10      29.97R
SUNLIGHT       CLOUDY    32  30  93 CALM      29.97S
WILKERSON PASS MOSUNNY   30  19  64 W8        29.97S WCI  23
$$

COZ069>075-251500-
...SAN LUIS VALLEY/SANGRE DE CRISTO MOUNTAINS...

CITY           SKY/WX    TMP DP  RH WIND       PRES   REMARKS
ALAMOSA        MOSUNNY   37  29  72 NE5       29.94R
LA VETA PASS   MOSUNNY   32  25  74 S9G22     29.98R WCI  24
SAGUACHE       MOSUNNY   34  25  69 NW8       29.96R WCI  27
$$

COZ035-036-038>040-251500-
...NORTHERN COLORADO FRONT RANGE...

CITY           SKY/WX    TMP DP  RH WIND       PRES   REMARKS
DENVER INTL AP MOSUNNY   53  28  38 SW13      29.74S
DMNS CITY PARK   N/A     51  26  37 SW3G10    29.74R
AURORA         MOSUNNY   51  27  39 S10       29.76S
FRONT RANGE AP MOSUNNY   54  32  43 S9        29.75F
ERIE MUNI ARPT SUNNY     47  36  64 CALM      29.73F
BOULDER MUN AP SUNNY     50  32  50 CALM      29.73S
CENTENNIAL     MOSUNNY   53  27  36 SW7       29.76S
BROOMFIELD     MOSUNNY   54  30  40 W5        29.75S
FORT COLLINS   SUNNY     48  37  66 CALM      29.75R
LONGMONT       SUNNY     53  38  57 CALM      29.74S
$$

COZ041-046-047-076>085-087-088-251500-
...PIKES PEAK/PALMER DIVIDE AND SOUTHERN FOOTHILLS...

CITY           SKY/WX    TMP DP  RH WIND       PRES   REMARKS
COLO. SPRINGS  MOSUNNY   51  25  36 NW3       29.80R
A. F. ACADEMY  SUNNY     54  20  27 W12G22    29.80R
ELLICOTT       SUNNY    N/A N/A N/A N3        29.79R
FALCON         SUNNY     51  20  29 W14       29.82S
FORT CARSON    SUNNY     47  29  49 NW3       29.77S
LIMON          SUNNY     48  34  58 NW6       29.76F
MONUMENT HILL  SUNNY     46  25  42 SW9       29.81S
TRINIDAD       SUNNY     52  25  35 W21       29.82S
$$

COZ042>045-048>051-090-091-251500-
...NORTHEAST COLORADO...

CITY           SKY/WX    TMP DP  RH WIND       PRES   REMARKS
GREELEY ARPT   SUNNY     45  34  65 CALM      29.75S
AKRON          SUNNY     51  38  60 W13       29.72S
BURLINGTON     SUNNY     55  40  56 W17       29.71R
WRAY           MOSUNNY   52  44  74 NW7       29.70R
STERLING       SUNNY     50  39  66 SW5       29.71R
HOLYOKE        MOSUNNY   54  45  71 NW8       29.70R
FORT MORGAN    SUNNY     46  36  69 CALM      29.74S
$$

COZ086-089-092>099-251500-
...SOUTHEAST COLORADO...

CITY           SKY/WX    TMP DP  RH WIND       PRES   REMARKS
PUEBLO         SUNNY     45  33  63 CALM      29.77R
LA JUNTA       SUNNY     51  31  46 W6        29.75S
LAMAR          SUNNY     52  35  52 SW10      29.73S
SPRINGFIELD      N/A     59  29  31 NW17      29.75R
$$



USA.gov is the U.S. government's official web portal to all federal, state and local government web resources and services.